Regional Weather Roundup
Issued by NWS

Home | Current Version | Previous Version | Text Only | Print | Product List | Glossary Off
Versions: 1 2 3 4 5 6 7 8 9 10 11 12 13 14 15 16 17 18 19 20 21 22 23 24 25 26 27 28 29 30 31 32 33 34 35 36 37 38 39 40 41 42 43 44 45 46 47 48 49 50

000
ASUS43 KDMX 192207
RWRIA

WEATHER ROUNDUP FOR IOWA
NATIONAL WEATHER SERVICE DES MOINES IA
400 PM CST FRI DEC 19 2014

NOTE: "FAIR" INDICATES FEW OR NO CLOUDS BELOW 12,000 FEET WITH NO
SIGNIFICANT WEATHER AND/OR OBSTRUCTIONS TO VISIBILITY.

* - THESE STATIONS ARE NOT NWS STATIONS...THUS NOT UNDER NWS
QUALITY CONTROL.  THEY ALSO DO NOT REPORT WEATHER SUCH
AS PRECIPITATION OR FOG.

IAZ001>003-012>014-020>022-031>034-043>046-192300-
   NORTHWEST IOWA

CITY           SKY/WX    TMP DP  RH WIND       PRES   REMARKS
CARROLL *      CLOUDY    32  30  93 S10       30.17S WCI  24
CHEROKEE *     CLOUDY    32  28  86 S9        30.14S WCI  24
DENISON *      CLOUDY    32  30  93 S10       30.14S FOG     WCI  24
LE MARS *      CLOUDY    34  28  80 S10       30.13S WCI  26
ORANGE CITY *  CLOUDY    34  27  75 S13       30.11S WCI  25
SHELDON *      CLOUDY    32  30  93 S15       30.11S WCI  22
SIOUX CITY     CLOUDY    34  28  79 S10       30.14S WCI  26
SPENCER        CLOUDY    34  28  79 S9        30.14R WCI  27
STORM LAKE *   CLOUDY    32  30  93 S12       30.14S FOG     WCI  23
$$

IAZ055>058-069>071-079>083-090>094-192300-
   SOUTHWEST IOWA

CITY           SKY/WX    TMP DP  RH WIND       PRES   REMARKS
ATLANTIC *     CLOUDY    32  30  93 S9        30.18S FOG     WCI  24
AUDUBON *      CLEAR     32  27  80 S7        30.18R HAZE    WCI  26
CLARINDA *     CLOUDY    30  30 100 S9        30.22S WCI  22
COUNCIL BLFS * CLOUDY    32  32 100 S9        30.15S WCI  24
CRESTON *      CLOUDY    30  30 100 S8        30.19S FOG     WCI  23
HARLAN  *      CLOUDY    32  32 100 S12       30.20S WCI  23
LAMONI         CLOUDY    32  29  88 S6        30.20S FOG     WCI  26
RED OAK *      CLOUDY    30  30 100 S10       30.19S WCI  21
SHENANDOAH *   CLOUDY    30  28  93 S7        30.20S WCI  23
$$

IAZ047>049-059>061-072>074-084-192300-
   CENTRAL IOWA

CITY           SKY/WX    TMP DP  RH WIND       PRES   REMARKS
AMES           CLOUDY    31  27  85 SE8       30.21F FOG     WCI  23
ANKENY *       CLOUDY    32  28  86 SE8       30.22S WCI  25
CHARITON *     CLOUDY    32  30  93 SE7       30.22S FOG     WCI  26
DES MOINES     CLOUDY    33  28  81 SE8       30.22S WCI  26
GRINNELL*      CLOUDY    30  27  86 SE9       30.24S WCI  22
KNOXVILLE *    CLOUDY    32  27  80 SE8       30.22S WCI  25
MARSHALLTOWN   CLOUDY    30  25  81 SE8       30.22F WCI  22
PELLA *        CLOUDY    32  27  80 SE6       30.26S WCI  26
PERRY *        CLOUDY    34  32  93 S6        30.20S WCI  29
$$

IAZ004>006-015-016-023>025-035-036-192300-
   NORTH CENTRAL IOWA

CITY           SKY/WX    TMP DP  RH WIND       PRES   REMARKS
ALGONA *       CLOUDY    32  30  93 S12       30.18R FOG     WCI  23
CLARION *      CLOUDY    32  32 100 S12       30.19S WCI  23
ESTHERVILLE    CLOUDY    31  28  89 S13       30.14R FOG     WCI  21
FORT DODGE *   CLOUDY    32  27  80 S8        30.19S WCI  25
MASON CITY     CLOUDY    30  27  88 SE9       30.21S FOG     WCI  22
FOREST CITY *  CLOUDY    32  30  93 SE9       30.19S FOG     WCI  24
IOWA FALLS *   CLOUDY    30  27  86 S12       30.22S WCI  21
$$

IAZ007>011-017>019-026>030-037>042-050>054-066-192300-
   NORTHEAST IOWA

CITY           SKY/WX    TMP DP  RH WIND       PRES   REMARKS
CEDAR RAPIDS   CLOUDY    30  22  72 S7        30.26S WCI  23
CHARLES CITY * CLOUDY    28  25  86 S10       30.23S WCI  19
CLINTON *      CLOUDY    28  19  69 S5        30.34R WCI  23
DECORAH *      CLOUDY    28  23  80 S6        30.24R WCI  22
DUBUQUE        CLOUDY    27  21  78 SW8       30.28R WCI  19
MONTICELLO *   CLOUDY    30  23  74 SE6       30.29S WCI  24
OELWEIN *      CLOUDY    30  23  74 SE8       30.25F WCI  23
WATERLOO       CLOUDY    30  23  75 S9        30.25S WCI  22
$$

IAZ064-065-067-068-078-192300-
   EAST CENTRAL IOWA

CITY           SKY/WX    TMP DP  RH WIND       PRES   REMARKS
DAVENPORT      CLOUDY    31  19  61 SE3       30.30S
IOWA CITY      CLOUDY    30  21  69 S6        30.30S WCI  24
MT. PLEASANT * CLOUDY    30  23  74 CALM      30.28S
MUSCATINE *    CLOUDY    32  19  59 SE3       30.30F
QUAD CITIES    CLOUDY    32  20  61 E3        30.30S
$$

IAZ062-063-075>077-085>089-095>099-192300-
   SOUTHEAST IOWA

CITY           SKY/WX    TMP DP  RH WIND       PRES   REMARKS
BURLINGTON     CLOUDY    33  24  69 CALM      30.27F
FAIRFIELD *    CLOUDY    30  25  80 SE6       30.27S WCI  24
FORT MADISON * CLOUDY    34  28  80 CALM      30.28S
KEOKUK *       CLOUDY    32  25  74 E3        30.26F
OSKALOOSA *    CLOUDY    30  27  86 SE7       30.25F FOG     WCI  23
CENTERVILLE *  MOCLDY    32  32 100 E6        30.24S WCI  26
OTTUMWA        CLOUDY    31  25  78 SE7       30.24F WCI  24
WASHINGTON *   CLOUDY    30  27  86 SE7       30.28S WCI  23
$$

ABBREVIATIONS USED IN REMARKS
   TC - TEMPERATURES IN CELSIUS
  WCI - WIND CHILL INDEX
   HX - HEAT INDEX
  VSB - VISIBILITY
$$



USA.gov is the U.S. government's official web portal to all federal, state and local government web resources and services.